This is the latest recevied weather packets stored in our database for station/object KI5NXU. If no packets are shown the sender has not sent any weather packets the latest 10 day(s).
| Time | Temp. | Humidity | Pressure | Rain* | Wind** | Luminosity | Snow |
|---|---|---|---|---|---|---|---|
| 1778072168 | 10.56° C | 86% | 1013.4 hPa | 0 mm | - | 15 W/m² | - |
| 1778071866 | 10.56° C | 86% | 1013.3 hPa | 0 mm | - | 22 W/m² | - |
| 1778071563 | 10.56° C | 86% | 1013.3 hPa | 0 mm | - | 15 W/m² | - |
| 1778071261 | 11.11° C | 86% | 1013.2 hPa | 0 mm | - | 21 W/m² | - |
| 1778070958 | 11.11° C | 86% | 1013 hPa | 0 mm | - | 15 W/m² | - |
| 1778070657 | 11.11° C | 86% | 1012.8 hPa | 0 mm | - | 23 W/m² | - |
| 1778070353 | 11.11° C | 86% | 1012.7 hPa | 0 mm | - | 18 W/m² | - |
| 1778070051 | 11.11° C | 86% | 1012.4 hPa | 0 mm | - | 10 W/m² | - |
| 1778069748 | 11.11° C | 86% | 1012.6 hPa | 0 mm | - | 6 W/m² | - |
| 1778069444 | 11.11° C | 86% | 1012.2 hPa | 0 mm | - | 5 W/m² | - |
| 1778069143 | 11.11° C | 85% | 1012.5 hPa | 0 mm | - | 3 W/m² | - |
| 1778068839 | 11.11° C | 85% | 1012.3 hPa | 0 mm | - | 1 W/m² | - |
| 1778068538 | 11.11° C | 84% | 1012.4 hPa | 0 mm | - | 0 W/m² | - |
| 1778068236 | 11.67° C | 84% | 1012.3 hPa | 0 mm | - | 0 W/m² | - |
| 1778067933 | 11.11° C | 84% | 1012.5 hPa | 0 mm | - | 0 W/m² | - |
| 1778067631 | 11.67° C | 85% | 1012.5 hPa | 0 mm | - | 0 W/m² | - |
| 1778067329 | 11.67° C | 84% | 1012.4 hPa | 0 mm | - | 0 W/m² | - |
| 1778067026 | 11.67° C | 84% | 1012.3 hPa | 0 mm | - | 0 W/m² | - |
| 1778066722 | 11.67° C | 83% | 1012.5 hPa | 0 mm | - | 0 W/m² | - |
| 1778066420 | 11.67° C | 83% | 1012.5 hPa | 0 mm | - | 0 W/m² | - |
| 1778066118 | 11.67° C | 83% | 1012.5 hPa | 0 mm | - | 0 W/m² | - |
| 1778065814 | 11.67° C | 82% | 1012.4 hPa | 0 mm | - | 0 W/m² | - |
| 1778065512 | 11.67° C | 82% | 1012.6 hPa | 0 mm | - | 0 W/m² | - |
| 1778065209 | 11.67° C | 82% | 1012.5 hPa | 0 mm | - | 0 W/m² | - |
| 1778064905 | 11.67° C | 82% | 1012.2 hPa | 0 mm | - | 0 W/m² | - |
* Rain latest hour (hover to see other rain measurements)
** Current wind speed in m/s (hover to see current wind gust speed)